When you browse on this site, cookies collect data to enhance your experience and personalize the content and advertising you see.
Visit our Privacy Policy to learn more. By continuing to use the site, you agree to this use of cookies and data.
  • In Sweden
  • List of Countries
  • For 7 days
  • Water Temperature
  • Satellite Maps
  • Weather Map
  • Weather Widgets
  • user-avatar
    Login

    Hourly Weather Bartoszewice

    Today, 23 May, Thursday

    Time Temperature Precipitation Wind Pressure Humidity
    00:00 +14°C° 0 mm 2 mps 748 mmHg 93%
    01:00 +13°C° 0 mm 3 mps 749 mmHg 97%
    02:00 +13°C° 0 mm 3 mps 749 mmHg 96%
    03:00 +13°C° 0 mm 4 mps 749 mmHg 95%
    04:00 +13°C° 0 mm 4 mps 749 mmHg 94%
    05:00 +14°C° 0.1 mm 4 mps 749 mmHg 92%
    06:00 +14°C° 0.1 mm 4 mps 750 mmHg 91%
    07:00 +14°C° 0.1 mm 4 mps 750 mmHg 89%
    08:00 +14°C° 0 mm 4 mps 750 mmHg 87%
    09:00 +15°C° 0 mm 4 mps 750 mmHg 85%
    10:00 +15°C° 0 mm 4 mps 751 mmHg 83%
    11:00 +15°C° 0 mm 4 mps 751 mmHg 82%
    12:00 +15°C° 0 mm 5 mps 751 mmHg 81%
    13:00 +16°C° 0 mm 5 mps 751 mmHg 79%
    14:00 +15°C° 0 mm 5 mps 751 mmHg 78%
    15:00 +15°C° 0 mm 5 mps 751 mmHg 78%
    16:00 +15°C° 0 mm 5 mps 751 mmHg 77%
    17:00 +14°C° 0 mm 4 mps 751 mmHg 77%
    18:00 +13°C° 0 mm 3 mps 751 mmHg 76%
    19:00 +13°C° 0 mm 3 mps 752 mmHg 76%
    20:00 +12°C° 0 mm 3 mps 752 mmHg 76%
    21:00 +11°C° 0 mm 3 mps 752 mmHg 75%
    22:00 +10°C° 0 mm 2 mps 752 mmHg 75%
    23:00 +10°C° 0 mm 2 mps 752 mmHg 78%

    Tomorrow, 24 May, Friday

    Time Temperature Precipitation Wind Pressure Humidity
    00:00 +9°C° 0 mm 2 mps 752 mmHg 81%
    01:00 +8°C° 0 mm 2 mps 752 mmHg 84%
    02:00 +8°C° 0 mm 2 mps 752 mmHg 88%
    03:00 +8°C° 0 mm 2 mps 752 mmHg 91%
    04:00 +7°C° 0 mm 2 mps 752 mmHg 94%
    05:00 +9°C° 0 mm 2 mps 752 mmHg 89%
    06:00 +12°C° 0 mm 2 mps 752 mmHg 83%
    07:00 +14°C° 0 mm 2 mps 752 mmHg 78%
    08:00 +15°C° 0 mm 2 mps 752 mmHg 72%
    09:00 +17°C° 0 mm 2 mps 752 mmHg 66%
    10:00 +18°C° 0 mm 2 mps 752 mmHg 59%
    11:00 +19°C° 0 mm 2 mps 752 mmHg 57%
    12:00 +20°C° 0 mm 2 mps 752 mmHg 54%
    13:00 +20°C° 0 mm 2 mps 751 mmHg 52%
    14:00 +20°C° 0 mm 2 mps 751 mmHg 54%
    15:00 +20°C° 0 mm 2 mps 751 mmHg 55%
    16:00 +20°C° 0 mm 2 mps 750 mmHg 57%
    17:00 +19°C° 0.1 mm 2 mps 750 mmHg 63%
    18:00 +18°C° 0.1 mm 2 mps 750 mmHg 69%
    19:00 +18°C° 0.1 mm 1 mps 750 mmHg 76%
    20:00 +16°C° 0 mm 2 mps 749 mmHg 78%
    21:00 +15°C° 0 mm 2 mps 749 mmHg 81%
    22:00 +14°C° 0 mm 2 mps 749 mmHg 84%
    23:00 +13°C° 0 mm 2 mps 749 mmHg 85%

    Day after tomorrow, 25 May, Saturday

    Time Temperature Precipitation Wind Pressure Humidity
    00:00 +11°C° 0 mm 3 mps 749 mmHg 85%
    01:00 +11°C° 0 mm 3 mps 749 mmHg 86%
    02:00 +11°C° 0 mm 3 mps 748 mmHg 85%
    03:00 +10°C° 0 mm 3 mps 748 mmHg 84%
    04:00 +10°C° 0 mm 3 mps 748 mmHg 83%
    05:00 +12°C° 0.1 mm 3 mps 748 mmHg 83%
    06:00 +13°C° 0.1 mm 3 mps 748 mmHg 82%
    07:00 +14°C° 0.1 mm 3 mps 748 mmHg 81%
    08:00 +15°C° 0 mm 4 mps 748 mmHg 74%
    09:00 +16°C° 0 mm 5 mps 749 mmHg 68%
    10:00 +17°C° 0 mm 6 mps 749 mmHg 61%
    11:00 +17°C° 0 mm 6 mps 749 mmHg 61%
    12:00 +19°C° 0 mm 6 mps 749 mmHg 60%
    13:00 +19°C° 0 mm 6 mps 749 mmHg 59%
    14:00 +17°C° 0 mm 6 mps 749 mmHg 61%
    15:00 +17°C° 0 mm 6 mps 748 mmHg 63%
    16:00 +16°C° 0 mm 6 mps 748 mmHg 65%
    17:00 +15°C° 0 mm 5 mps 748 mmHg 68%
    18:00 +15°C° 0 mm 4 mps 748 mmHg 72%
    19:00 +15°C° 0 mm 2 mps 748 mmHg 76%
    20:00 +14°C° 0 mm 2 mps 748 mmHg 79%
    21:00 +13°C° 0 mm 2 mps 748 mmHg 82%
    22:00 +12°C° 0 mm 2 mps 748 mmHg 85%
    23:00 +11°C° 0 mm 3 mps 748 mmHg 87%

    26 May, Sunday

    Time Temperature Precipitation Wind Pressure Humidity
    00:00 +11°C° 0 mm 3 mps 748 mmHg 90%
    01:00 +10°C° 0 mm 3 mps 747 mmHg 92%
    02:00 +10°C° 0 mm 4 mps 747 mmHg 91%
    03:00 +10°C° 0 mm 4 mps 747 mmHg 89%
    04:00 +9°C° 0 mm 5 mps 746 mmHg 87%
    05:00 +9°C° 0.3 mm 5 mps 746 mmHg 87%
    06:00 +9°C° 0.3 mm 6 mps 746 mmHg 87%
    07:00 +9°C° 0.3 mm 6 mps 746 mmHg 87%
    08:00 +9°C° 0.6 mm 6 mps 746 mmHg 87%
    09:00 +9°C° 0.6 mm 7 mps 746 mmHg 86%
    10:00 +9°C° 0.6 mm 7 mps 747 mmHg 85%
    11:00 +10°C° 0.4 mm 8 mps 747 mmHg 80%
    12:00 +10°C° 0.4 mm 9 mps 747 mmHg 75%
    13:00 +11°C° 0.4 mm 9 mps 747 mmHg 69%
    14:00 +11°C° 0.1 mm 9 mps 747 mmHg 70%
    15:00 +10°C° 0.1 mm 8 mps 746 mmHg 70%
    16:00 +10°C° 0.1 mm 8 mps 746 mmHg 70%
    17:00 +10°C° 0 mm 7 mps 747 mmHg 71%
    18:00 +9°C° 0 mm 6 mps 747 mmHg 72%
    19:00 +9°C° 0 mm 6 mps 747 mmHg 72%
    20:00 +8°C° 0 mm 5 mps 747 mmHg 73%
    21:00 +8°C° 0 mm 5 mps 748 mmHg 74%
    22:00 +7°C° 0 mm 5 mps 748 mmHg 75%
    23:00 +6°C° 0 mm 4 mps 748 mmHg 79%

    27 May, Monday

    Time Temperature Precipitation Wind Pressure Humidity
    00:00 +6°C° 0 mm 4 mps 748 mmHg 82%
    01:00 +5°C° 0 mm 4 mps 748 mmHg 85%
    02:00 +5°C° 0 mm 3 mps 748 mmHg 89%
    03:00 +4°C° 0 mm 3 mps 748 mmHg 92%
    04:00 +4°C° 0 mm 3 mps 748 mmHg 95%
    05:00 +7°C° 0 mm 3 mps 748 mmHg 89%
    06:00 +8°C° 0 mm 4 mps 748 mmHg 83%
    07:00 +11°C° 0 mm 4 mps 748 mmHg 77%
    08:00 +13°C° 0 mm 5 mps 748 mmHg 73%
    09:00 +14°C° 0 mm 5 mps 747 mmHg 69%
    10:00 +16°C° 0 mm 6 mps 747 mmHg 66%
    11:00 +17°C° 0 mm 6 mps 747 mmHg 67%
    12:00 +19°C° 0 mm 6 mps 746 mmHg 68%
    13:00 +20°C° 0 mm 6 mps 745 mmHg 69%
    14:00 +20°C° 1 mm 6 mps 745 mmHg 72%
    15:00 +20°C° 1 mm 6 mps 745 mmHg 74%
    16:00 +20°C° 1 mm 6 mps 745 mmHg 77%
    17:00 +20°C° 1.1 mm 5 mps 745 mmHg 79%
    18:00 +19°C° 1.1 mm 4 mps 744 mmHg 82%
    19:00 +18°C° 1.1 mm 4 mps 744 mmHg 85%
    20:00 +17°C° 0.4 mm 3 mps 744 mmHg 87%
    21:00 +16°C° 0.4 mm 2 mps 745 mmHg 89%
    22:00 +16°C° 0.4 mm 1 mps 745 mmHg 91%
    23:00 +15°C° 0 mm 1 mps 744 mmHg 93%

    28 May, Tuesday

    Time Temperature Precipitation Wind Pressure Humidity
    00:00 +14°C° 0 mm 1 mps 744 mmHg 94%
    01:00 +14°C° 0 mm 1 mps 744 mmHg 95%
    02:00 +13°C° 0.1 mm 1 mps 744 mmHg 96%
    03:00 +13°C° 0.1 mm 1 mps 744 mmHg 97%
    04:00 +13°C° 0.1 mm 2 mps 744 mmHg 97%
    05:00 +13°C° 0.5 mm 2 mps 744 mmHg 96%
    06:00 +13°C° 0.5 mm 3 mps 744 mmHg 95%
    07:00 +13°C° 0.5 mm 4 mps 744 mmHg 94%
    08:00 +12°C° 1.2 mm 4 mps 744 mmHg 94%
    09:00 +12°C° 1.2 mm 4 mps 744 mmHg 93%
    10:00 +12°C° 1.2 mm 4 mps 744 mmHg 93%
    11:00 +12°C° 0.2 mm 4 mps 744 mmHg 91%
    12:00 +13°C° 0.2 mm 4 mps 744 mmHg 88%
    13:00 +13°C° 0.2 mm 3 mps 745 mmHg 86%
    14:00 +14°C° 0 mm 3 mps 745 mmHg 81%
    15:00 +16°C° 0 mm 2 mps 745 mmHg 76%
    16:00 +17°C° 0 mm 2 mps 745 mmHg 71%
    17:00 +16°C° 0.1 mm 2 mps 745 mmHg 76%
    18:00 +16°C° 0.1 mm 2 mps 746 mmHg 81%
    19:00 +15°C° 0.1 mm 2 mps 746 mmHg 86%
    20:00 +14°C° 0 mm 2 mps 746 mmHg 88%
    21:00 +12°C° 0 mm 2 mps 747 mmHg 90%
    22:00 +11°C° 0 mm 1 mps 747 mmHg 92%
    23:00 +10°C° 0 mm 2 mps 747 mmHg 92%
    Show more